Tracking 35275 objects as of 8-Sep-2026
HD Live streaming from Space Station
objects crossing your sky now

PSLV DEB


PSLV DEB is no longer on orbit


NORAD ID: 27229
Int'l Code: 2001-049FZ
Launch date: October 22, 2001
Source: India (IND)
Launch site: SRIHARIKOTA (SRI)
Decay date: 2002-04-20

Note: This is SATELLITE DEBRIS
Your satellite tracking list
Your tracking list is empty




NASA's NSSDC Master Catalog

Two Line Element Set (TLE):
1 27229U 01049FZ  02121.88126616 +.00264114 +00000-0 +36769-2 0  9991
2 27229 097.6376 202.2461 0106049 287.4767 071.4914 15.49754698017417
Source of the keplerian elements: AFSPC